星链-32445 (STARLINK-32445)

导读

STARLINK-32445是美国太空探索技术公司SpaceX星链星座中的一颗卫星,于2024年10月15日发射升空。星链项目旨在构建低地球轨道卫星互联网星座,为全球尤其是偏远欠发达地区提供高速宽带互联网接入服务。作为星链星座的一员,STARLINK-32445将与其他卫星协同工作,通过星间组网实现全球覆盖,拓展星链网络的服务能力,进一步推动全球互联基础设施建设。

Basic Information
目录编号:
61546
目录名称:
STARLINK-32445
国际标识:
2024-184Q
轨道中心:
EARTH
卫星名称:
星链-32445
卫星全名:
星链-32445 (STARLINK-32445)
卫星状态:
在轨 (已飞行697 天)
发射日期:
2024-10-15 UTC
国别 :
美国 (US)
星等 :
--
This satellite is enrolled in the Space Conjunction Data Service (SCDS) and the current flight risk assessment level is: No High Risk
Orbit Information
数据来源 国际轨道数据 AOE轨道数据
星历时间 2026-09-11T15:30:02+0800
1天前
查看轨道信息
2026-09-10T23:00:00+0800
1天前
查看轨道信息
半长轴 6832.85km 6832.883km
偏心率 0.00025 0.0002363
轨道倾角 53.157° 53.156°
近地点辐角 49.092° 45.014°
升交点赤经 227.702° 230.927°
平近点角 311.030° 108.581°
近地点 453.004km 453.131km
远地点 456.422km 456.361km
周期 93.683分钟 93.684分钟
每日圈数 15.370925 15.370814
Detailed Information
固有亮度:
5
最大亮度:
2.5
卫星平台:
Starlink V1.0
覆盖范围:
全球
运营商:
太空探索技术公司
运营商所在国:
美国
制造商(研发单位):
太空探索技术公司
制造商所在国:
美国
使用方式:
暂无
Satellite Introduction
Starlink 计划是 SpaceX 推出的全球卫星互联网项目,通过发射低轨道卫星,为全球尤其是偏远地区提供高速、低延迟的互联网服务。自 2019 年起,Starlink 已部署数千颗卫星,旨在缩小全球数字鸿沟,推动互联网普及。该项目还为军事、航空等行业提供通信支持,带来广泛经济效益。
2D Orbit Map
3D Orbit Map
Orbit Altitude Analysis Chart
Orbit Inclination Analysis Chart
Orbit Comprehensive Analysis Chart
View Comprehensive Chart
Conjunction Data List
Event ID Objects TCA Miss Dist (km) Collision Risk Probability Collision Risk Index (CRI) Action
CDM_260913-221006-154606-596022
2026-09-13T
22:10:19+0000
2.087 km
极远距离
1.825818E-6 低风险 0.4
CDM_260913-224405-911706-154622
2026-09-13T
22:44:41+0000
2.727 km
极远距离
1.519595E-6 低风险 0.39
Miss Distance Evolution Trend with All Objects
Collision Probability Evolution Trend with All Objects